| time (UTC) | temp F | wind direction | speed MPH | gust MPH | rain 1hr in | rain 24hr in | rain mn in | humidity % | barometer mb |
| 20260509123102 | 47 | 178 | 4.0 | 8.0 | 0.06 | 0.30 | 0.14 | 86 | 1010.6 |
| 20260509121543 | 47 | 183 | 4.0 | 14.0 | 0.08 | 0.28 | 0.13 | 86 | 1010.8 |
| 20260509120016 | 47 | 208 | 5.0 | 10.0 | 0.10 | 0.28 | 0.12 | 85 | 1010.9 |
| 20260509114603 | 46 | 164 | 3.0 | 6.0 | 0.10 | 0.26 | 0.10 | 85 | 1011.1 |
| 20260509113026 | 46 | 150 | 3.0 | 7.0 | 0.08 | 0.24 | 0.08 | 85 | 1011.0 |
| 20260509111549 | 46 | 46 | 2.0 | 4.0 | 0.05 | 0.21 | 0.06 | 85 | 1011.1 |
| 20260509110013 | 46 | 143 | 1.0 | 5.0 | 0.02 | 0.18 | 0.02 | 85 | 1011.0 |
| 20260509104539 | 46 | 124 | 3.0 | 11.0 | 0.00 | 0.16 | 0.00 | 85 | 1010.9 |
| 20260509103057 | 46 | 178 | 4.0 | 8.0 | 0.00 | 0.16 | 0.00 | 85 | 1010.8 |
| 20260509101522 | 45 | 152 | 3.0 | 9.0 | 0.00 | 0.16 | 0.00 | 84 | 1010.6 |
| 20260509100050 | 45 | 152 | 3.0 | 7.0 | 0.00 | 0.16 | 0.00 | 84 | 1010.8 |
| 20260509094557 | 44 | 178 | 2.0 | 5.0 | 0.00 | 0.16 | 0.00 | 84 | 1010.8 |
| 20260509093031 | 43 | 171 | 3.0 | 6.0 | 0.00 | 0.16 | 0.00 | 84 | 1010.7 |
| 20260509091507 | 43 | 1 | 1.0 | 5.0 | 0.00 | 0.16 | 0.00 | 84 | 1010.7 |
| 20260509090055 | 43 | 152 | 2.0 | 5.0 | 0.00 | 0.16 | 0.00 | 84 | 1010.8 |
| 20260509084528 | 42 | 193 | 1.0 | 3.0 | 0.00 | 0.16 | 0.00 | 83 | 1011.1 |
| 20260509083041 | 42 | 296 | 1.0 | 6.0 | 0.00 | 0.16 | 0.00 | 83 | 1010.9 |
| 20260509081559 | 41 | 11 | 2.0 | 4.0 | 0.00 | 0.16 | 0.00 | 83 | 1011.1 |
| 20260509080015 | 41 | 344 | 3.0 | 4.0 | 0.00 | 0.16 | 0.00 | 83 | 1011.4 |
| 20260509074546 | 41 | 1 | 2.0 | 4.0 | 0.00 | 0.16 | 0.00 | 83 | 1011.4 |
| 20260509073007 | 42 | 342 | 2.0 | 5.0 | 0.00 | 0.16 | 0.00 | 83 | 1011.5 |
| 20260509071535 | 42 | 336 | 1.0 | 4.0 | 0.00 | 0.16 | 0.00 | 83 | 1011.5 |
| 20260509070055 | 42 | 1 | 2.0 | 4.0 | 0.00 | 0.16 | 0.00 | 83 | 1011.5 |
| 20260509064521 | 43 | 336 | 2.0 | 4.0 | 0.00 | 0.16 | 0.00 | 82 | 1011.7 |
| 20260509063004 | 43 | 223 | 1.0 | 5.0 | 0.00 | 0.16 | 0.00 | 81 | 1011.8 |
| 20260509061547 | 42 | 178 | 1.0 | 3.0 | 0.00 | 0.16 | 0.00 | 81 | 1012.0 |
| 20260509060109 | 41 | 102 | 2.0 | 3.0 | 0.00 | 0.16 | 0.00 | 81 | 1012.2 |
| 20260509054526 | 40 | 178 | 1.0 | 3.0 | 0.00 | 0.16 | 0.00 | 81 | 1012.2 |
| 20260509053049 | 39 | 46 | 2.0 | 4.0 | 0.00 | 0.16 | 0.00 | 82 | 1012.3 |
| 20260509051528 | 39 | 331 | 1.0 | 3.0 | 0.00 | 0.16 | 0.00 | 82 | 1012.4 |
| 20260509050048 | 39 | 28 | 2.0 | 4.0 | 0.00 | 0.16 | 0.00 | 81 | 1012.5 |
| 20260509044557 | 38 | 351 | 3.0 | 5.0 | 0.00 | 0.16 | 0.00 | 81 | 1012.5 |
| 20260509043012 | 37 | 1 | 3.0 | 5.0 | 0.00 | 0.16 | 0.00 | 81 | 1012.4 |
| 20260509041538 | 38 | 351 | 2.0 | 5.0 | 0.00 | 0.16 | 0.00 | 81 | 1012.6 |
| 20260509040058 | 38 | 339 | 3.0 | 6.0 | 0.00 | 0.16 | 0.16 | 81 | 1012.7 |
| 20260509034515 | 37 | 1 | 2.0 | 4.0 | 0.00 | 0.16 | 0.16 | 82 | 1012.7 |
| 20260509033040 | 38 | 15 | 2.0 | 6.0 | 0.00 | 0.16 | 0.16 | 82 | 1012.7 |
| 20260509031603 | 38 | 28 | 3.0 | 7.0 | 0.00 | 0.16 | 0.16 | 82 | 1012.7 |
| 20260509030032 | 39 | 1 | 4.0 | 6.0 | 0.00 | 0.16 | 0.16 | 81 | 1012.8 |
| 20260509024549 | 39 | 13 | 2.0 | 5.0 | 0.00 | 0.16 | 0.16 | 81 | 1013.0 |
| 20260509023014 | 40 | 46 | 2.0 | 5.0 | 0.00 | 0.16 | 0.16 | 81 | 1013.1 |
| 20260509021534 | 40 | 20 | 3.0 | 6.0 | 0.00 | 0.16 | 0.16 | 81 | 1012.9 |
| 20260509020022 | 41 | 13 | 4.0 | 5.0 | 0.00 | 0.16 | 0.16 | 81 | 1013.1 |
| 20260509014557 | 41 | 20 | 4.0 | 6.0 | 0.00 | 0.16 | 0.16 | 80 | 1013.0 |
| 20260509013105 | 41 | 347 | 2.0 | 4.0 | 0.00 | 0.16 | 0.16 | 80 | 1012.8 |
| 20260509011517 | 41 | 6 | 2.0 | 8.0 | 0.00 | 0.16 | 0.16 | 79 | 1012.6 |
| 20260509010035 | 41 | 13 | 4.0 | 6.0 | 0.00 | 0.16 | 0.16 | 79 | 1012.4 |
| 20260509004554 | 42 | 8 | 4.0 | 7.0 | 0.00 | 0.16 | 0.16 | 78 | 1012.2 |
| 20260509003016 | 44 | 1 | 3.0 | 5.0 | 0.00 | 0.16 | 0.16 | 75 | 1012.1 |
| 20260509001537 | 45 | 331 | 4.0 | 5.0 | 0.00 | 0.16 | 0.16 | 71 | 1011.9 |
| 20260509000055 | 47 | 1 | 4.0 | 5.0 | 0.00 | 0.16 | 0.16 | 68 | 1011.8 |
| 20260508234509 | 50 | 340 | 2.0 | 5.0 | 0.00 | 0.16 | 0.16 | 63 | 1011.6 |
| 20260508233036 | 51 | 344 | 3.0 | 7.0 | 0.00 | 0.16 | 0.16 | 61 | 1011.4 |
| 20260508231555 | 52 | 338 | 4.0 | 7.0 | 0.00 | 0.16 | 0.16 | 61 | 1011.4 |
| 20260508230048 | 52 | 347 | 4.0 | 6.0 | 0.00 | 0.16 | 0.16 | 59 | 1011.4 |
| 20260508224534 | 53 | 340 | 5.0 | 11.0 | 0.00 | 0.16 | 0.16 | 59 | 1011.5 |
| 20260508223059 | 54 | 23 | 3.0 | 9.0 | 0.00 | 0.16 | 0.16 | 57 | 1011.4 |
| 20260508221535 | 54 | 300 | 2.0 | 6.0 | 0.00 | 0.16 | 0.16 | 58 | 1011.4 |
| 20260508220059 | 53 | 197 | 2.0 | 11.0 | 0.00 | 0.16 | 0.16 | 59 | 1011.5 |
| 20260508214525 | 53 | 340 | 6.0 | 12.0 | 0.00 | 0.16 | 0.16 | 61 | 1011.7 |
| 20260508213107 | 53 | 269 | 7.0 | 13.0 | 0.00 | 0.16 | 0.16 | 57 | 1011.7 |
| 20260508211512 | 54 | 308 | 8.0 | 19.0 | 0.00 | 0.16 | 0.16 | 56 | 1011.7 |
| 20260508210035 | 54 | 241 | 7.0 | 18.0 | 0.00 | 0.16 | 0.16 | 55 | 1011.8 |
| 20260508204555 | 54 | 300 | 6.0 | 10.0 | 0.00 | 0.16 | 0.16 | 60 | 1011.8 |
| 20260508203013 | 54 | 308 | 8.0 | 14.0 | 0.00 | 0.16 | 0.16 | 54 | 1012.0 |
| 20260508201542 | 53 | 296 | 7.0 | 13.0 | 0.00 | 0.16 | 0.16 | 59 | 1012.1 |
| 20260508200017 | 53 | 223 | 4.0 | 15.0 | 0.00 | 0.16 | 0.16 | 63 | 1012.2 |
| 20260508194550 | 53 | 115 | 10.0 | 19.0 | 0.00 | 0.16 | 0.16 | 60 | 1012.5 |
| 20260508193054 | 51 | 225 | 5.0 | 15.0 | 0.00 | 0.16 | 0.16 | 67 | 1012.6 |
| 20260508191552 | 51 | 219 | 3.0 | 17.0 | 0.00 | 0.16 | 0.16 | 65 | 1012.9 |
| 20260508190010 | 51 | 257 | 9.0 | 19.0 | 0.00 | 0.16 | 0.16 | 67 | 1012.9 |
| 20260508184533 | 50 | 250 | 7.0 | 14.0 | 0.00 | 0.16 | 0.16 | 71 | 1013.1 |
| 20260508183058 | 48 | 318 | 8.0 | 18.0 | 0.00 | 0.16 | 0.16 | 75 | 1013.3 |
| 20260508181520 | 47 | 271 | 8.0 | 12.0 | 0.00 | 0.16 | 0.16 | 76 | 1013.5 |
| 20260508180037 | 46 | 309 | 6.0 | 17.0 | 0.00 | 0.16 | 0.16 | 74 | 1013.5 |
| 20260508174615 | 47 | 340 | 4.0 | 16.0 | 0.00 | 0.16 | 0.16 | 76 | 1013.5 |
| 20260508173018 | 47 | 140 | 6.0 | 10.0 | 0.00 | 0.16 | 0.16 | 78 | 1013.6 |
| 20260508171555 | 46 | 190 | 4.0 | 11.0 | 0.00 | 0.16 | 0.16 | 81 | 1013.7 |
| 20260508170010 | 45 | 168 | 3.0 | 14.0 | 0.00 | 0.16 | 0.16 | 80 | 1013.7 |
| 20260508164605 | 45 | 231 | 2.0 | 12.0 | 0.00 | 0.16 | 0.16 | 82 | 1013.7 |
| 20260508163038 | 44 | 204 | 4.0 | 9.0 | 0.00 | 0.16 | 0.16 | 83 | 1013.7 |
| 20260508161513 | 43 | 319 | 3.0 | 12.0 | 0.00 | 0.16 | 0.16 | 84 | 1013.8 |
| 20260508160039 | 40 | 32 | 3.0 | 13.0 | 0.00 | 0.16 | 0.16 | 83 | 1013.9 |
| 20260508154558 | 40 | 279 | 3.0 | 11.0 | 0.01 | 0.16 | 0.16 | 83 | 1014.0 |
| 20260508153032 | 39 | 269 | 4.0 | 7.0 | 0.01 | 0.16 | 0.16 | 84 | 1014.0 |
| 20260508151546 | 38 | 206 | 3.0 | 9.0 | 0.01 | 0.16 | 0.16 | 83 | 1014.0 |
| 20260508150059 | 37 | 346 | 1.0 | 3.0 | 0.02 | 0.16 | 0.16 | 84 | 1013.7 |
| 20260508144522 | 36 | 269 | 3.0 | 7.0 | 0.03 | 0.15 | 0.15 | 83 | 1013.9 |
| 20260508143044 | 36 | 250 | 2.0 | 5.0 | 0.05 | 0.15 | 0.15 | 83 | 1014.0 |
| 20260508141510 | 36 | 1 | 0.0 | 2.0 | 0.10 | 0.15 | 0.15 | 83 | 1013.6 |
| 20260508140032 | 36 | 344 | 0.0 | 5.0 | 0.13 | 0.14 | 0.14 | 83 | 1013.7 |
| 20260508134601 | 36 | 300 | 3.0 | 6.0 | 0.12 | 0.12 | 0.12 | 83 | 1013.9 |
| 20260508133009 | 36 | 330 | 3.0 | 10.0 | 0.09 | 0.09 | 0.10 | 83 | 1013.6 |
| 20260508131547 | 38 | 259 | 4.0 | 15.0 | 0.05 | 0.05 | 0.06 | 82 | 1013.7 |
| 20260508130009 | 41 | 203 | 1.0 | 10.0 | 0.01 | 0.01 | 0.01 | 81 | 1013.1 |
| 20260508124545 | 42 | 135 | 3.0 | 6.0 | 0.00 | 0.00 | 0.00 | 80 | 1012.9 |